Wind_Speed
10 10 10 10 10 10 9 8 9 9 9 9 8 7 7 6 6 6 7 8 9 9 9 10 10 10 10 11 11 12 12 13 13 13 13 12 11 10 9 8 7 5 5 4 3 4 4 4 5
9 9 9 9 10 8 7 7 8 8 8 7 7 6 6 6 6 7 7 7 8 8 8 8 8 8 8 9 9 10 10 11 11 12 12 12 12 11 10 9 8 6 5 4 3 3 3 3 3
7 8 8 9 9 6 6 6 6 6 6 6 6 5 5 5 5 6 6 7 7 8 8 7 7 6 6 7 7 7 8 9 9 9 10 10 11 11 11 10 9 7 6 4 3 2 2 2 2
5 5 6 7 6 5 4 5 4 4 5 6 5 4 4 4 4 5 5 6 7 7 7 7 6 6 6 5 5 6 6 6 7 7 7 8 8 9 9 9 9 8 6 5 4 3 2 2 2
3 3 4 5 4 3 2 3 3 3 4 5 4 4 3 3 3 4 4 6 6 7 7 7 7 6 6 6 5 5 5 5 5 5 5 6 6 6 7 7 8 7 7 6 4 3 2 2 2
1 1 2 2 1 0 0 1 2 2 2 3 3 3 2 2 2 2 3 5 6 7 7 7 7 8 8 7 6 6 5 4 4 4 4 4 4 4 4 5 5 6 6 5 4 3 2 1 1
1 1 2 1 1 2 2 2 3 3 2 2 3 3 2 1 1 1 3 5 6 7 8 8 8 9 9 9 8 7 6 6 5 4 3 3 2 2 2 2 2 3 3 3 3 3 2 2 1
4 4 3 4 4 4 5 5 4 4 4 4 4 4 4 4 4 3 4 5 7 8 9 10 10 10 11 11 10 10 9 8 7 6 5 4 3 3 2 2 2 1 1 1 1 1 1 2 1
7 7 7 6 6 6 6 6 7 7 7 7 7 7 7 7 7 7 7 7 8 9 10 11 12 13 13 13 13 12 12 11 11 10 9 7 6 5 5 4 4 4 3 3 2 2 1 1 1
9 9 10 10 9 9 9 10 10 10 10 10 10 11 10 10 10 11 11 11 11 11 12 13 14 15 16 16 16 15 15 14 14 13 12 11 10 8 7 7 6 6 6 6 5 4 4 2 2
11 12 12 12 13 13 12 13 13 13 14 14 14 14 14 14 14 14 14 15 15 15 15 16 17 17 18 19 19 19 18 18 17 16 15 14 13 12 10 9 9 8 8 8 8 7 6 5 4
12 13 14 15 15 16 16 16 17 18 17 18 19 19 18 18 18 18 18 18 19 19 19 20 20 21 21 22 22 22 22 21 21 20 19 17 16 15 14 13 11 10 10 9 10 9 9 8 7
14 15 16 17 18 19 20 20 21 22 22 23 23 23 23 22 22 22 23 23 23 24 23 24 25 24 24 25 26 25 24 24 24 23 23 21 20 19 17 16 14 13 12 11 11 11 11 11 10
17 18 19 20 21 22 23 24 25 26 27 27 27 27 27 27 27 27 27 28 28 28 28 28 29 29 28 28 29 29 28 27 27 26 26 25 23 22 21 19 17 15 14 14 14 13 13 13 13
20 21 23 24 25 25 27 27 27 28 29 30 30 30 30 31 32 32 32 33 33 33 33 33 33 32 32 32 32 30 31 31 31 30 29 28 26 25 24 22 21 18 16 16 16 15 15 15 15
23 25 26 26 27 28 29 29 29 30 31 32 32 32 33 34 35 36 37 37 38 38 38 38 37 37 36 36 35 35 32 33 34 34 33 32 30 29 27 26 24 21 20 19 18 18 17 17 17
24 26 27 28 28 29 30 31 31 31 32 33 33 34 35 36 37 38 39 41 41 42 43 43 43 41 41 40 38 37 37 35 35 35 36 35 33 32 31 30 27 24 23 22 21 20 19 19 18
26 27 28 28 29 30 30 31 31 31 32 33 34 35 36 37 39 40 41 42 44 45 46 46 46 45 43 43 43 41 40 39 38 37 35 36 35 33 32 31 29 27 26 25 24 22 22 21 20
25 27 28 28 28 28 28 29 29 30 31 32 34 35 37 38 39 40 41 42 44 46 46 47 48 48 48 47 46 44 44 43 42 39 37 36 34 33 32 32 30 28 28 26 24 24 23 24 23
25 26 26 26 26 27 27 28 28 29 30 31 33 34 35 37 38 39 39 41 42 44 45 45 46 48 49 49 49 48 47 47 45 43 40 37 35 35 33 32 29 28 27 27 26 25 25 25 25
23 24 24 25 25 25 27 28 27 28 29 31 32 32 32 33 35 37 37 38 39 40 40 42 43 45 46 48 48 48 48 48 46 44 42 39 35 33 31 30 29 28 27 26 27 28 26 25 26
21 22 24 25 25 25 25 28 27 28 29 29 29 29 30 31 32 33 33 33 35 36 36 37 39 41 43 44 45 45 45 45 45 45 42 40 38 36 34 32 31 31 29 27 27 27 26 26 26
20 22 22 22 23 23 23 25 26 25 26 26 26 27 27 28 28 27 27 28 28 29 31 32 35 37 39 40 41 42 42 42 42 42 41 39 38 37 36 34 31 31 30 28 27 25 25 26 26
19 19 19 19 20 21 21 21 22 21 21 21 22 22 22 23 24 24 23 22 22 23 25 26 28 30 32 33 35 36 37 38 38 38 38 37 36 36 35 34 32 31 31 30 29 28 27 27 27
17 17 18 19 19 18 18 18 17 16 17 17 18 18 18 19 19 18 17 17 17 17 17 19 20 21 23 25 27 29 31 31 32 33 34 34 34 33 33 32 32 32 31 30 30 29 29 29 29
15 16 17 17 18 17 16 15 15 15 15 16 16 17 16 16 16 15 15 14 14 12 12 12 12 13 14 16 18 20 23 25 25 27 29 29 30 31 31 32 31 31 31 30 30 30 28 28 29
14 14 15 15 15 14 14 14 14 14 15 15 16 17 16 15 14 13 14 13 12 10 9 9 9 8 8 10 12 13 17 18 19 21 24 26 28 28 30 31 31 31 30 31 31 31 30 30 30
15 15 15 15 14 14 13 13 13 14 14 15 16 16 16 14 14 14 15 14 12 11 10 9 8 6 4 4 5 7 10 13 14 15 18 21 24 25 27 28 29 30 31 31 32 32 32 32 32
16 15 15 15 15 13 13 13 12 13 13 14 15 16 16 15 15 15 16 16 14 13 12 11 11 10 7 5 1 2 4 7 10 11 14 17 19 21 24 25 26 27 28 29 30 31 31 31 31
16 16 16 16 16 14 13 13 13 13 14 15 16 16 16 16 16 17 17 18 18 16 15 15 14 12 12 11 8 5 2 2 4 6 8 11 14 17 19 21 23 23 25 25 26 27 28 29 30
Wind_Direction
84 79 77 74 76 73 76 84 92 96 95 90 91 94 103 119 133 136 139 139 136 129 121 116 110 105 101 98 95 93 91 88 87 88 88 88 88 88 89 91 96 104 115 127 140 157 171 188 201
85 81 78 77 74 68 74 81 89 94 95 94 92 93 101 116 131 143 147 149 148 144 137 130 125 118 112 106 103 99 95 92 90 87 86 85 85 85 85 84 86 94 103 114 128 142 157 170 183
85 83 79 81 75 70 70 77 83 91 92 93 89 92 100 118 134 147 155 160 160 158 154 150 145 139 132 124 117 111 105 99 95 91 88 85 83 82 83 83 83 86 93 103 113 122 142 157 166
80 81 80 81 77 72 68 70 77 88 87 83 80 85 103 121 142 155 166 172 173 172 171 170 169 165 159 151 141 132 122 113 105 99 94 89 86 83 82 84 85 86 89 94 101 111 125 151 177
72 81 87 80 77 74 66 67 66 75 80 74 71 75 95 119 144 166 184 190 192 192 189 189 192 191 187 179 171 161 149 137 126 116 107 99 93 88 85 84 85 87 88 91 93 100 112 140 168
98 85 114 89 78 63 358 20 22 35 61 62 56 54 68 98 139 176 203 213 212 211 209 208 209 211 210 206 198 193 184 170 158 148 135 121 110 101 93 89 87 87 89 89 87 85 93 109 151
250 232 203 212 240 252 271 303 314 318 345 3 5 2 1 354 296 232 233 234 232 228 224 222 223 225 225 224 221 216 213 209 202 195 185 171 154 143 132 115 101 94 93 93 91 84 81 92 116
260 257 252 253 265 267 267 278 290 299 307 317 321 324 319 308 298 284 268 256 249 243 238 234 231 232 233 234 234 232 231 229 228 227 225 221 217 215 208 202 198 185 149 125 117 106 90 96 111
266 270 271 270 276 277 280 278 285 288 291 300 301 300 299 294 287 281 275 270 264 256 250 246 243 240 239 238 238 240 240 240 240 240 240 239 237 236 234 228 225 225 226 231 231 228 223 143 133
269 273 277 278 280 280 281 281 284 283 284 289 291 289 287 285 280 275 272 269 270 267 260 255 253 250 247 245 244 244 245 245 246 246 245 245 245 244 242 240 236 232 232 234 239 239 239 237 228
273 278 280 282 283 282 282 283 283 282 284 286 288 286 283 281 277 273 269 267 266 265 264 260 255 253 252 250 249 248 247 246 246 246 247 248 249 249 248 246 244 240 236 235 236 239 239 238 237
279 282 284 285 285 285 284 283 284 284 284 283 284 284 281 277 274 272 268 266 265 264 263 262 259 255 253 252 251 250 249 247 246 246 246 248 250 252 252 250 247 245 241 239 238 238 240 239 237
281 283 285 286 286 286 285 285 284 284 283 282 281 280 278 274 271 270 268 267 266 265 264 264 263 258 254 253 251 249 249 249 249 248 247 247 248 251 252 251 248 246 245 244 242 239 240 241 238
282 284 285 286 287 287 286 285 284 284 283 281 280 278 276 273 270 268 266 265 264 265 263 262 261 260 258 256 254 250 249 248 248 248 247 247 248 249 249 249 248 247 246 246 245 242 241 241 240
283 285 286 288 288 288 287 286 285 284 283 281 280 277 274 271 269 267 264 263 262 262 262 262 261 260 258 256 255 254 251 247 246 246 246 246 246 248 248 247 248 248 249 248 247 246 244 243 242
286 288 289 290 290 290 289 289 286 284 283 281 279 277 274 271 269 266 265 263 261 260 259 260 259 259 258 258 258 255 254 251 248 247 245 246 246 246 247 246 246 247 248 249 249 248 247 246 244
288 290 291 291 292 291 290 289 288 285 283 281 279 277 274 272 270 267 265 263 262 261 259 259 259 258 257 257 258 257 255 254 254 252 248 246 246 246 246 245 244 246 248 249 249 249 249 249 247
290 291 291 292 292 291 290 289 289 287 285 283 281 279 277 275 273 271 269 267 264 262 261 259 259 258 256 256 256 255 255 256 256 256 254 253 250 249 247 245 244 246 249 250 250 251 251 250 249
290 291 292 293 293 292 291 290 290 289 288 286 284 282 281 279 277 275 274 272 270 267 264 261 260 260 258 257 257 257 257 257 258 257 255 256 254 253 252 249 247 249 250 251 251 251 252 251 251
293 294 294 295 295 294 293 292 292 293 291 289 288 287 285 283 281 280 278 276 273 271 268 265 263 262 261 260 259 259 259 258 258 258 255 256 256 256 256 254 252 253 253 254 252 252 253 251 250
296 296 297 297 297 297 296 294 295 295 294 293 292 291 289 288 285 283 281 279 277 274 272 268 265 263 261 260 258 258 258 259 259 258 258 258 258 255 256 256 257 257 258 256 253 253 253 252 252
299 300 301 302 301 301 300 299 299 299 299 298 298 297 296 294 291 288 285 282 279 276 274 272 268 265 262 259 257 256 256 257 258 258 258 257 258 259 257 257 258 257 257 255 254 254 253 254 253
306 307 308 308 306 305 305 302 303 303 303 304 304 305 304 302 300 298 293 290 286 281 277 275 272 268 264 260 257 255 255 255 255 256 256 256 257 258 258 258 257 255 254 254 256 254 253 252 253
314 314 316 316 315 313 312 309 310 311 311 312 312 312 312 311 309 307 302 297 292 288 283 280 277 272 266 260 256 254 254 254 253 253 253 252 253 254 256 258 257 256 255 255 256 255 252 252 254
322 325 328 329 328 324 322 320 321 323 324 323 322 323 324 322 321 320 318 312 304 296 290 287 282 276 267 259 256 254 251 250 250 249 248 247 248 249 250 252 253 253 254 255 253 253 253 252 252
335 334 335 334 332 331 332 334 335 336 339 339 339 341 340 337 338 336 337 334 329 317 307 304 298 287 271 261 255 250 245 243 244 243 243 241 242 243 244 246 248 249 251 251 251 252 254 253 252
345 344 342 339 338 339 341 343 344 348 353 356 356 355 354 355 356 356 354 353 354 350 344 342 332 311 283 265 258 247 238 235 236 239 239 239 238 240 241 243 244 247 249 250 251 254 255 254 253
357 356 355 355 353 354 352 354 357 0 5 10 11 12 15 19 16 14 13 16 16 10 5 9 13 10 346 293 260 239 230 230 235 238 238 237 237 239 239 240 243 247 250 251 252 253 253 253 255
9 9 9 7 6 7 7 9 12 14 18 20 20 23 29 31 32 31 30 32 30 31 35 33 32 30 33 37 43 215 227 230 236 240 241 241 240 240 241 243 245 248 249 251 251 252 253 254 255
17 17 16 16 20 23 24 24 24 28 30 32 34 36 39 40 40 40 41 43 44 45 44 44 47 48 51 54 63 78 115 202 234 238 242 243 244 245 245 245 247 248 249 250 250 252 253 253 254
Height
5932 5932 5932 5933 5933 5932 5932 5932 5930 5929 5929 5928 5927 5926 5926 5926 5927 5929 5926 5924 5924 5924 5923 5923 5923 5923 5923 5922 5922 5921 5920 5920 5919 5918 5917 5916 5915 5914 5914 5913 5913 5913 5912 5912 5912 5913 5913 5913 5913
5933 5933 5934 5934 5933 5933 5933 5932 5931 5930 5929 5928 5927 5927 5926 5926 5925 5925 5925 5924 5924 5924 5924 5924 5924 5924 5923 5923 5923 5922 5922 5921 5920 5919 5918 5917 5916 5915 5914 5914 5913 5913 5913 5913 5912 5913 5913 5913 5913
5934 5934 5935 5935 5934 5934 5934 5932 5931 5930 5929 5928 5928 5927 5927 5926 5925 5925 5925 5924 5924 5924 5924 5924 5924 5924 5924 5924 5923 5923 5922 5922 5921 5920 5919 5918 5917 5916 5915 5914 5914 5913 5913 5913 5912 5912 5912 5913 5913
5935 5936 5936 5936 5934 5934 5934 5933 5932 5931 5930 5929 5928 5928 5927 5926 5926 5925 5925 5924 5924 5924 5923 5923 5924 5924 5924 5924 5923 5923 5923 5922 5921 5921 5920 5919 5918 5917 5916 5915 5915 5914 5913 5913 5913 5913 5912 5913 5913
5936 5936 5936 5935 5935 5934 5934 5933 5932 5931 5930 5929 5928 5928 5927 5926 5925 5925 5925 5924 5924 5924 5923 5923 5923 5923 5923 5923 5923 5923 5922 5922 5921 5921 5920 5919 5919 5918 5917 5916 5915 5915 5914 5913 5913 5913 5912 5912 5913
5936 5936 5937 5936 5935 5934 5934 5933 5932 5931 5930 5929 5929 5928 5927 5926 5925 5925 5924 5924 5923 5923 5923 5922 5922 5922 5922 5922 5922 5922 5921 5921 5921 5920 5920 5919 5919 5918 5917 5917 5916 5915 5915 5914 5913 5913 5912 5912 5912
5936 5936 5935 5935 5934 5934 5933 5932 5932 5931 5930 5930 5929 5928 5927 5926 5925 5924 5924 5923 5923 5922 5922 5921 5921 5921 5921 5921 5921 5920 5920 5920 5919 5919 5919 5918 5918 5918 5917 5917 5916 5915 5915 5914 5914 5913 5913 5912 5912
5934 5936 5934 5934 5934 5933 5932 5931 5931 5930 5930 5929 5928 5928 5927 5926 5925 5924 5923 5922 5922 5921 5920 5920 5920 5919 5919 5919 5919 5919 5918 5918 5918 5918 5917 5917 5917 5916 5916 5916 5915 5915 5915 5914 5914 5913 5913 5912 5912
5933 5935 5933 5933 5932 5932 5931 5930 5930 5929 5928 5928 5927 5926 5926 5925 5924 5923 5922 5921 5920 5919 5919 5918 5918 5918 5917 5917 5917 5917 5916 5916 5916 5916 5915 5915 5915 5915 5915 5914 5914 5914 5914 5914 5913 5913 5912 5912 5912
5932 5932 5931 5931 5930 5930 5929 5928 5927 5927 5926 5926 5925 5924 5923 5922 5922 5921 5920 5919 5918 5917 5917 5916 5916 5916 5915 5915 5914 5914 5914 5914 5913 5913 5913 5913 5913 5913 5912 5912 5912 5913 5913 5912 5912 5912 5912 5911 5911
5930 5930 5929 5928 5928 5927 5926 5926 5924 5924 5923 5923 5922 5921 5920 5919 5918 5918 5916 5916 5915 5914 5913 5912 5912 5912 5912 5912 5911 5911 5911 5911 5911 5910 5910 5910 5910 5910 5910 5910 5910 5910 5910 5911 5911 5910 5910 5910 5910
5928 5927 5926 5926 5925 5924 5923 5922 5921 5920 5920 5919 5918 5917 5916 5915 5914 5913 5912 5911 5911 5910 5909 5909 5908 5908 5907 5907 5907 5906 5907 5907 5907 5907 5907 5907 5907 5907 5907 5907 5907 5908 5908 5908 5908 5908 5909 5909 5909
5925 5924 5923 5922 5921 5920 5919 5919 5918 5916 5915 5914 5913 5912 5911 5910 5909 5908 5907 5906 5906 5905 5904 5903 5903 5902 5901 5901 5901 5900 5901 5902 5902 5903 5903 5903 5903 5903 5904 5904 5904 5904 5905 5905 5906 5906 5906 5906 5907
5922 5921 5920 5919 5918 5916 5915 5914 5913 5911 5910 5909 5908 5907 5905 5904 5903 5903 5902 5900 5900 5898 5897 5897 5896 5895 5895 5895 5895 5895 5895 5895 5896 5897 5897 5897 5898 5898 5899 5900 5900 5901 5901 5902 5902 5903 5903 5904 5904
5919 5918 5916 5915 5913 5911 5910 5909 5907 5905 5903 5902 5901 5899 5898 5897 5896 5895 5894 5893 5892 5891 5891 5890 5889 5889 5889 5888 5888 5888 5888 5888 5889 5890 5891 5891 5892 5893 5894 5895 5895 5896 5897 5898 5898 5899 5900 5900 5901
5915 5913 5912 5910 5907 5906 5905 5902 5900 5898 5896 5895 5893 5891 5890 5889 5888 5887 5885 5884 5884 5883 5882 5882 5881 5881 5881 5881 5881 5881 5881 5881 5882 5883 5884 5884 5885 5886 5887 5889 5890 5891 5892 5893 5894 5895 5896 5897 5898
5911 5909 5906 5904 5901 5899 5897 5895 5893 5891 5888 5886 5885 5883 5881 5879 5878 5877 5876 5875 5874 5873 5873 5873 5873 5873 5873 5873 5873 5873 5874 5874 5874 5875 5875 5876 5878 5879 5880 5882 5883 5885 5886 5887 5889 5890 5891 5892 5893
5906 5903 5900 5898 5895 5893 5890 5887 5885 5883 5880 5878 5876 5874 5872 5870 5868 5866 5865 5864 5863 5863 5863 5862 5862 5863 5863 5864 5864 5864 5866 5866 5866 5867 5868 5869 5871 5872 5873 5874 5876 5878 5880 5881 5883 5884 5885 5887 5888
5901 5898 5895 5892 5889 5886 5883 5880 5878 5875 5873 5870 5867 5865 5862 5860 5858 5856 5854 5852 5851 5851 5851 5851 5851 5852 5853 5853 5854 5855 5856 5857 5858 5859 5861 5862 5863 5865 5867 5868 5870 5871 5873 5874 5876 5878 5879 5880 5882
5896 5893 5889 5887 5884 5881 5877 5874 5872 5868 5865 5862 5859 5856 5853 5851 5848 5845 5843 5841 5840 5839 5838 5839 5839 5840 5841 5842 5843 5845 5846 5847 5849 5851 5853 5854 5856 5858 5860 5862 5863 5864 5866 5868 5869 5871 5872 5874 5876
5891 5888 5884 5881 5878 5875 5872 5869 5865 5862 5858 5855 5851 5848 5844 5841 5838 5835 5833 5830 5828 5827 5826 5826 5827 5827 5829 5830 5832 5834 5835 5837 5839 5841 5843 5845 5848 5850 5852 5854 5857 5858 5860 5861 5862 5864 5865 5867 5868
5886 5883 5880 5876 5873 5869 5867 5862 5859 5855 5851 5847 5843 5840 5836 5832 5829 5826 5823 5820 5818 5817 5816 5815 5814 5815 5816 5817 5819 5822 5824 5826 5828 5831 5833 5836 5839 5841 5844 5846 5849 5850 5852 5853 5855 5856 5858 5860 5861
5882 5879 5875 5871 5868 5864 5861 5857 5854 5849 5845 5841 5837 5833 5829 5825 5821 5817 5814 5811 5809 5807 5806 5804 5803 5803 5803 5805 5807 5810 5813 5815 5818 5821 5824 5826 5829 5832 5835 5838 5840 5842 5844 5846 5848 5849 5851 5853 5854
5878 5875 5871 5867 5864 5860 5856 5853 5848 5844 5840 5836 5832 5828 5823 5819 5815 5811 5807 5804 5802 5799 5797 5795 5794 5793 5793 5794 5796 5799 5802 5805 5808 5811 5814 5817 5820 5823 5827 5829 5831 5834 5836 5839 5840 5842 5843 5845 5847
5875 5872 5868 5864 5860 5856 5852 5848 5845 5840 5836 5832 5828 5824 5819 5815 5811 5807 5803 5799 5796 5793 5790 5788 5787 5785 5785 5786 5788 5790 5793 5796 5799 5802 5805 5808 5812 5815 5818 5821 5823 5826 5828 5830 5831 5833 5836 5837 5839
5872 5869 5867 5863 5858 5853 5849 5845 5842 5838 5833 5829 5825 5821 5816 5812 5808 5804 5800 5796 5793 5790 5787 5784 5782 5780 5780 5780 5781 5783 5785 5789 5792 5794 5797 5800 5803 5806 5809 5812 5815 5818 5820 5822 5823 5826 5827 5829 5831
5871 5867 5864 5861 5856 5852 5848 5844 5840 5836 5832 5828 5823 5819 5815 5811 5807 5803 5799 5795 5792 5789 5786 5783 5780 5778 5777 5777 5778 5779 5781 5783 5786 5788 5790 5793 5796 5798 5801 5804 5807 5809 5812 5814 5816 5818 5819 5821 5823
5870 5866 5862 5858 5854 5850 5847 5843 5840 5835 5831 5827 5823 5819 5815 5811 5807 5804 5800 5796 5792 5789 5786 5783 5781 5778 5777 5776 5776 5777 5778 5779 5782 5783 5785 5788 5790 5792 5795 5797 5800 5802 5804 5806 5808 5810 5811 5813 5814
5869 5866 5861 5858 5854 5850 5847 5845 5840 5836 5832 5828 5824 5820 5816 5812 5809 5805 5801 5798 5794 5791 5788 5785 5783 5780 5778 5777 5776 5776 5777 5778 5780 5781 5782 5783 5785 5787 5789 5791 5793 5795 5797 5798 5800 5801 5803 5804 5805
5869 5866 5862 5859 5854 5850 5847 5847 5840 5837 5833 5830 5826 5822 5818 5815 5811 5808 5804 5800 5797 5794 5791 5788 5786 5783 5781 5780 5778 5778 5778 5778 5778 5779 5779 5780 5782 5783 5784 5786 5787 5789 5790 5791 5792 5794 5795 5796 5797